STARLINK-32723

Last updated on Wed Jan 29 2025 00:02:04 GMT+0000 (Coordinated Universal Time)

1 62449U 24251T 25028.49995764 -.00235713 00000+0 -46370-2 0 9993 2 62449 53.1613 66.4951 0009517 109.7006 250.5030 15.47478323 5613
UTC large
Height (km)
Speed (km/s)
/
Latitude / Longitude
Inclination (degrees)
Orbital Period (minutes)
Azimuth
Elevation
Range (km)
Doppler Factor

Next 0 passes for location: London (51.5072 / 0.1276)

Sorry there are no passes over London.